Location: Esp�s Alto
(42.4476°N, 0.5876°E)
Time: 01:00:39
(UTC+00:00)

BREEZE-M DEB (TANK) - Pass Details

Date: 22 October 2019
Orbit: 328 x 13805 km, 49.6° (Epoch: 21 November)

Event Time Altitude Azimuth Distance (km) Brightness Sun altitude
Exits shadow 04:11:45 22° 87° (E) 780 4.4 -24.0°
Drops below altitude 10° 04:12:47 10° 99° (E) 1,266 5.7 -23.8°
Sets 04:14:46 0° 106° (ESE) 2,282 7.1 -23.4°
